Location: Assche-ter-Heiden
(50.9174°N, 4.1574°E)
Time: 04:26:45
(UTC+00:00)

USA 229 DEB - Pass Details

Date: 20 January 2020
Orbit: 989 x 1223 km, 63.4° (Epoch: 23 February)

Event Time Altitude Azimuth Distance (km) Brightness Sun altitude
Exits shadow 04:04:41 41° 0° (N) 1,514 4.4 -32.7°
Drops below altitude 10° 04:10:06 10° 43° (NE) 2,987 6.6 -31.9°
Sets 04:13:01 0° 50° (NE) 3,985 7.5 -31.4°
